Location: Unspecified
(50.1700°N, 6.8600°E)
Time: 04:16:19
(UTC+00:00)

Cosmos 2369 Rocket - Pass Details

Date: 24 January 2019
Orbit: 830 x 851 km, 71.0° (Epoch: 18 April)

Event Time Altitude Azimuth Distance (km) Brightness Sun altitude
Exits shadow 03:46:35 43° 42° (NE) 1,184 3.1 -33.4°
Drops below altitude 10° 03:50:20 10° 32° (NNE) 2,473 5.1 -32.9°
Sets 03:52:47 0° 31° (NNE) 3,408 5.8 -32.5°
